Location: Alt?nova Orta
(36.9295°N, 30.7847°E)
Time: 17:04:40
(UTC+00:00)

STARLINK-1069 - Pass Details

Date: 17 February 2020
Orbit: 375 x 384 km, 53.0° (Epoch: 30 March)

Event Time Altitude Azimuth Distance (km) Brightness Sun altitude
Exits shadow 02:20:22 14° 86° (E) 1,215 6.2 -29.3°
Drops below altitude 10° 02:21:00 10° 78° (ENE) 1,405 6.6 -29.2°
Enters shadow 03:19:26 -65° 229° (SW) 11,928 10.4 -17.5°
Maximum altitude 03:54:17 29° 324° (NW) 741 3.9 -10.6°
